Sandspit, British Columbia

6:46 PM PDT on March 25, 2017 (GMT -0700)
Sandspit

Weather History for CYZP - December, 2012

Change the Weather History Date:

Wednesday, December 12, 2012

  Actual Average Record
Temperature  
Mean Temperature 40 °F -  
Max Temperature 43 °F 43 °F 53 °F (2002)
Min Temperature 38 °F 34 °F 32 °F (2004)
Degree Days  
Heating Degree Days 24    
Moisture  
Dew Point 36 °F    
Average Humidity 84    
Maximum Humidity 100    
Minimum Humidity 61    
Precipitation  
Precipitation 0.00 in 0.22 in - ()
Sea Level Pressure  
Sea Level Pressure 29.85 in    
Wind  
Wind Speed 10 mph ()    
Max Wind Speed 16 mph    
Max Gust Speed 18 mph    
Visibility 8.6 miles    
Events Rain    
Averages and records for this station are not official NWS values.
T = Trace of Precipitation, MM = Missing Value Source: Averaged Metar Reports

Daily Weather History Graph

Daily Weather History Graph

Search for Another Location

Airport or City:

Trip Planner

Search our weather history database for the weather conditions in past years. The results will help you decide how hot, cold, wet, or windy it might be!

Date:

Astronomy

Dec. 12, 2012 Rise Set
Actual Time 8:53 AM PST 4:28 PM PST
Civil Twilight 8:11 AM PST 5:11 PM PST
Nautical Twilight 7:26 AM PST 5:56 PM PST
Astronomical Twilight 6:43 AM PST 6:38 PM PST
Moon 8:02 AM PST (12/12) 4:15 PM PST (12/12)
Length of Visible Light 9h 00m
Length of Day
7h 35m
Waning Crescent, 0% of the Moon is Illuminated
Dec 12
Waning Crescent
Dec 13
New
Dec 19
First Quarter
Dec 28
Full
Jan 4
Last Quarter

Hourly Weather History & Observations

Time (PST) Temp. Windchill Dew Point Humidity Pressure Visibility Wind Dir Wind Speed Gust Speed Precip Events Conditions
12:00 AM 39.2 °F 32.0 °F 33.8 °F 81% 29.81 in 9.0 mi WNW 11.5 mph - N/A   Clear
1:00 AM 39.2 °F 32.5 °F 32.0 °F 75% 29.82 in 9.0 mi WNW 10.4 mph - N/A   Clear
2:00 AM 39.2 °F 32.0 °F 32.0 °F 75% 29.85 in 9.0 mi WNW 11.5 mph - N/A   Clear
3:00 AM 41.0 °F 32.8 °F 30.2 °F 65% 29.85 in 9.0 mi West 16.1 mph - N/A   Clear
4:00 AM 42 °F - - % 29.87 in - WNW 12.7 mph - -  
4:00 AM 41.0 °F 33.5 °F 28.4 °F 61% 29.87 in 9.0 mi West 13.8 mph - N/A   Clear
5:00 AM 39.2 °F 32.0 °F 32.0 °F 75% 29.89 in 9.0 mi West 11.5 mph - N/A   Clear
6:00 AM 39.2 °F 31.6 °F 32.0 °F 75% 29.91 in 9.0 mi WNW 12.7 mph 18.4 mph N/A   Clear
7:00 AM 39.2 °F 32.0 °F 32.0 °F 75% 29.92 in 9.0 mi WSW 11.5 mph - N/A   Clear
8:00 AM 39.2 °F 31.6 °F 32.0 °F 75% 29.92 in 9.0 mi West 12.7 mph - N/A   Clear
9:00 AM 39.2 °F 33.6 °F 33.8 °F 81% 29.92 in 9.0 mi West 8.1 mph - N/A   Overcast
10:00 AM 39 °F - - % 29.93 in - West 9.2 mph - -  
10:00 AM 39.2 °F 32.0 °F 33.8 °F 81% 29.93 in 9.0 mi West 11.5 mph - N/A   Scattered Clouds
11:00 AM 41.0 °F 33.5 °F 35.6 °F 81% 29.94 in 9.0 mi West 13.8 mph - N/A   Overcast
12:00 PM 41.0 °F 34.3 °F 37.4 °F 87% 29.94 in 9.0 mi West 11.5 mph - N/A   Overcast
1:00 PM 42.8 °F 36.2 °F 37.4 °F 81% 29.94 in 9.0 mi West 12.7 mph - N/A   Overcast
2:00 PM 42.8 °F 39.3 °F 35.6 °F 76% 29.91 in 9.0 mi SW 5.8 mph - N/A   Overcast
3:44 PM 42.8 °F 37.0 °F 35.6 °F 76% 29.90 in 9.0 mi SW 10.4 mph - N/A Rain Light Rain
4:00 PM 43 °F - - % 29.89 in - SSW 4.6 mph - -  
4:00 PM 42.8 °F 39.3 °F 37.4 °F 81% 29.89 in 9.0 mi South 5.8 mph - N/A Rain Light Rain
4:51 PM 42.8 °F 39.3 °F 37.4 °F 81% 29.88 in 9.0 mi SSW 5.8 mph - N/A Rain Light Rain
5:00 PM 41.0 °F 38.0 °F 37.4 °F 87% 29.88 in 9.0 mi SSW 4.6 mph - N/A Rain Light Rain
5:42 PM 41.0 °F 36.4 °F 37.4 °F 87% 29.87 in 7.0 mi SSE 6.9 mph - N/A Rain Light Rain
5:56 PM 41.0 °F 37.1 °F 37.4 °F 87% 29.87 in 5.0 mi SSE 5.8 mph - N/A Rain Light Rain
6:00 PM 41.0 °F 35.2 °F 37.4 °F 87% 29.86 in 4.0 mi SSE 9.2 mph - N/A Rain Light Rain
6:16 PM 41.0 °F 35.8 °F 39.2 °F 93% 29.85 in 6.0 mi SSE 8.1 mph - N/A Rain Light Rain
6:34 PM 39.2 °F 33.6 °F 39.2 °F 100% 29.84 in 9.0 mi SSE 8.1 mph - N/A   Overcast
6:51 PM 41.0 °F 34.3 °F 39.2 °F 93% 29.82 in 9.0 mi South 11.5 mph - N/A Rain Light Rain
7:00 PM 41.0 °F 34.7 °F 37.4 °F 87% 29.81 in 9.0 mi SSE 10.4 mph - N/A Rain Light Rain
7:06 PM 41.0 °F 35.2 °F 39.2 °F 93% 29.81 in 9.0 mi South 9.2 mph - N/A   Overcast
7:33 PM 41.0 °F 35.8 °F 39.2 °F 93% 29.81 in 9.0 mi South 8.1 mph - N/A Rain Light Rain
7:42 PM 41.0 °F 35.2 °F 39.2 °F 93% 29.81 in 9.0 mi SSE 9.2 mph - N/A   Overcast
8:00 PM 41.0 °F 34.7 °F 39.2 °F 93% 29.80 in 9.0 mi SSE 10.4 mph - N/A Rain Light Rain
9:00 PM 41.0 °F 35.2 °F 39.2 °F 93% 29.76 in 9.0 mi SSE 9.2 mph - N/A Rain Light Rain
10:00 PM 41 °F - - % 29.73 in - South 9.2 mph - -  
10:00 PM 41.0 °F 33.9 °F 39.2 °F 93% 29.73 in 9.0 mi South 12.7 mph - N/A Rain Light Rain
11:00 PM 41.0 °F 34.7 °F 39.2 °F 93% 29.71 in 9.0 mi SSE 10.4 mph - N/A Rain Light Rain
11:44 PM 41.0 °F 34.3 °F 39.2 °F 93% 29.68 in 9.0 mi SSE 11.5 mph - N/A   Overcast